KP4NTS Weather Reports


Display with metric or nautical units.
time (UTC)temp
F
wind
direction
speed
MPH
gust
MPH
rain 1hr
in
rain 24hr
in
rain mn
in
humidity
%
barometer
mb
20260505130159 0 166 3.0 4.0 0.00 0.00 0.00 1021.1
20260505124649 0 85 2.0 3.0 0.00 0.00 0.00 1020.9
20260505124146 0 115 6.0 7.0 0.00 0.00 0.00 1020.9
20260505123641 0 130 4.0 6.0 0.00 0.00 0.00 1020.9
20260505123139 0 132 3.0 3.0 0.00 0.00 0.00 1021.0
20260505122634 0 97 1.0 2.0 0.00 0.00 0.00 1020.7
20260505122132 0 121 4.0 6.0 0.00 0.00 0.00 1020.7
20260505121623 0 159 2.0 2.0 0.00 0.00 0.00 1020.9
20260505121120 0 102 1.0 2.0 0.00 0.00 0.00 1020.8
20260505120615 0 118 3.0 3.0 0.00 0.00 0.00 1020.8
20260505120111 0 99 1.0 2.0 0.00 0.00 0.00 1020.7
20260505115607 0 117 4.0 6.0 0.00 0.00 0.00 1020.5
20260505115104 0 121 1.0 1.0 0.00 0.00 0.00 1020.6
20260505114600 0 147 2.0 3.0 0.00 0.00 0.00 1020.5
20260505114056 0 140 1.0 1.0 0.00 0.00 0.00 1020.5
20260505113553 0 83 1.0 2.0 0.00 0.00 0.00 1020.6
20260505113050 0 103 3.0 3.0 0.00 0.00 0.00 1020.4
20260505112546 0 107 1.0 1.0 0.00 0.00 0.00 1020.4
20260505112045 0 144 1.0 1.0 0.00 0.00 0.00 1020.4
20260505111538 0 163 0.0 1.0 0.00 0.00 0.00 1020.3
20260505111034 0 216 0.0 0.0 0.00 0.00 0.00 1020.3
20260505110526 0 216 0.0 0.0 0.00 0.00 0.00 1020.3
20260505101952 0 139 2.0 2.0 0.00 0.00 0.00 1020.1
20260505101450 0 122 1.0 2.0 0.00 0.00 0.00 1019.6
20260505100946 0 159 1.0 2.0 0.00 0.00 0.00 1019.7
20260505100444 0 99 0.0 0.0 0.00 0.00 0.00 1019.6
20260505095939 0 100 0.0 0.0 0.00 0.00 0.00 1019.5
20260505095436 0 99 1.0 1.0 0.00 0.00 0.00 1019.3
20260505094932 0 165 1.0 2.0 0.00 0.00 0.00 1019.5
20260505094429 0 179 2.0 2.0 0.00 0.00 0.00 1019.3
20260505093926 0 195 2.0 3.0 0.00 0.00 0.00 1019.5
20260505093422 0 196 2.0 2.0 0.00 0.00 0.00 1019.5
20260505092920 0 100 1.0 1.0 0.00 0.00 0.00 1019.3
20260505092418 0 100 0.0 0.0 0.00 0.00 0.00 1019.5
20260505091915 0 99 0.0 1.0 0.00 0.00 0.00 1019.5
20260505091412 0 99 0.0 0.0 0.00 0.00 0.00 1019.3
20260505090910 0 99 0.0 0.0 0.00 0.00 0.00 1019.6
20260505090408 0 99 0.0 0.0 0.00 0.00 0.00 1019.4
20260505085905 0 99 0.0 0.0 0.00 0.00 0.00 1019.5
20260505085403 0 175 0.0 0.0 0.00 0.00 0.00 1019.4
20260505084901 0 175 0.0 0.0 0.00 0.00 0.00 1019.2
20260505084359 0 175 0.0 0.0 0.00 0.00 0.00 1019.4
20260505083856 0 176 1.0 1.0 0.00 0.00 0.00 1019.2
20260505083354 0 175 1.0 1.0 0.00 0.00 0.00 1019.2
20260505082850 0 206 1.0 1.0 0.00 0.00 0.00 1019.3
20260505082346 0 182 1.0 1.0 0.00 0.00 0.00 1019.1
20260505081843 0 90 0.0 1.0 0.00 0.00 0.00 1019.2
20260505081339 0 90 0.0 0.0 0.00 0.00 0.00 1019.3
20260505080836 0 90 0.0 0.0 0.00 0.00 0.00 1019.2
20260505080332 0 90 0.0 0.0 0.00 0.00 0.00 1019.1
20260505075827 0 90 1.0 1.0 0.00 0.00 0.00 1018.9
20260505075325 0 90 1.0 1.0 0.00 0.00 0.00 1018.9
20260505074822 0 89 0.0 1.0 0.00 0.00 0.00 1019.0
20260505074319 0 89 0.0 0.0 0.00 0.00 0.00 1019.0
20260505073817 0 89 0.0 0.0 0.00 0.00 0.00 1019.0
20260505073315 0 89 0.0 0.0 0.00 0.00 0.00 1019.1
20260505072811 0 89 0.0 0.0 0.00 0.00 0.00 1019.0
20260505072307 0 89 0.0 0.0 0.00 0.00 0.00 1018.7
20260505071803 0 89 0.0 0.0 0.00 0.00 0.00 1019.2
20260505071300 0 89 0.0 0.0 0.00 0.00 0.00 1019.1
20260505070758 0 89 0.0 0.0 0.00 0.00 0.00 1019.2
20260505070254 0 89 0.0 0.0 0.00 0.00 0.00 1019.0
20260505065749 0 89 0.0 1.0 0.00 0.00 0.00 1019.2
20260505065246 0 89 0.0 0.0 0.00 0.00 0.00 1019.3
20260505064744 0 89 0.0 0.0 0.00 0.00 0.00 1019.0
20260505064241 0 89 0.0 0.0 0.00 0.00 0.00 1019.2
20260505063738 0 89 0.0 0.0 0.00 0.00 0.00 1019.5
20260505063235 0 89 0.0 1.0 0.00 0.00 0.00 1019.2
20260505062731 0 89 1.0 2.0 0.00 0.00 0.00 1019.1
20260505062229 0 81 2.0 2.0 0.00 0.00 0.00 1019.4
20260505061725 0 100 0.0 1.0 0.00 0.00 0.00 1019.4
20260505061224 0 101 1.0 2.0 0.00 0.00 0.00 1019.4
20260505060721 0 121 2.0 2.0 0.00 0.00 0.00 1019.5
20260505060218 0 104 2.0 2.0 0.00 0.00 0.00 1019.5
20260505055713 0 97 2.0 2.0 0.00 0.00 0.00 1019.4
20260505055210 0 116 1.0 1.0 0.00 0.00 0.00 1019.4
20260505054707 0 190 1.0 1.0 0.00 0.00 0.00 1019.6
20260505054205 0 172 1.0 1.0 0.00 0.00 0.00 1019.6
20260505053703 0 198 0.0 0.0 0.00 0.00 0.00 1019.7
20260505053159 0 217 1.0 1.0 0.00 0.00 0.00 1019.8
20260505052655 0 235 0.0 0.0 0.00 0.00 0.00 1019.9
20260505052153 0 201 1.0 1.0 0.00 0.00 0.00 1020.0
20260505051649 0 188 2.0 2.0 0.00 0.00 0.00 1019.9
20260505051147 0 188 1.0 1.0 0.00 0.00 0.00 1019.9
20260505050645 0 187 0.0 0.0 0.00 0.00 0.00 1020.0
20260505050143 0 187 1.0 1.0 0.00 0.00 0.00 1020.1
20260505041613 0 118 1.0 1.0 0.00 0.00 0.00 1020.4
20260505041111 0 125 2.0 2.0 0.00 0.00 0.00 1020.4
20260505040608 0 137 2.0 2.0 0.00 0.00 0.00 1020.3
20260505040105 0 120 2.0 2.0 0.00 0.00 0.00 1020.5
20260505035601 0 144 2.0 2.0 0.00 0.00 0.00 1020.8
20260505035057 0 128 2.0 3.0 0.00 0.00 0.00 1020.8
20260505034554 0 108 1.0 1.0 0.00 0.00 0.00 1021.0
20260505034051 0 103 2.0 2.0 0.00 0.00 0.00 1021.0
20260505033548 0 121 1.0 2.0 0.00 0.00 0.00 1020.9
20260505033046 0 79 1.0 1.0 0.00 0.00 0.00 1021.1
20260505032544 0 105 2.0 2.0 0.00 0.00 0.00 1021.4
20260505032040 0 73 0.0 0.0 0.00 0.00 0.00 1020.9
20260505031537 0 71 3.0 3.0 0.00 0.00 0.00 1021.0
20260505031033 0 100 3.0 4.0 0.00 0.00 0.00 1020.9
20260505030531 0 94 4.0 4.0 0.00 0.00 0.00 1021.0
20260505030027 0 64 4.0 4.0 0.00 0.00 0.00 1021.1
20260505025522 0 80 2.0 2.0 0.00 0.00 0.00 1020.9
20260505025021 0 76 1.0 1.0 0.00 0.00 0.00 1021.0
20260505024518 0 104 3.0 3.0 0.00 0.00 0.00 1020.9
20260505024015 0 66 1.0 2.0 0.00 0.00 0.00 1021.0
20260505023512 0 120 2.0 3.0 0.00 0.00 0.00 1020.8
20260505023010 0 100 1.0 2.0 0.00 0.00 0.00 1021.0
20260505022508 0 89 2.0 2.0 0.00 0.00 0.00 1020.8
20260505022004 0 93 1.0 1.0 0.00 0.00 0.00 1020.9
20260505021501 0 104 2.0 2.0 0.00 0.00 0.00 1020.9
20260505020956 0 103 0.0 1.0 0.00 0.00 0.00 1020.8
20260505020452 0 66 2.0 3.0 0.00 0.00 0.00 1021.0
20260505015949 0 73 3.0 3.0 0.00 0.00 0.00 1020.9
20260505015446 0 58 4.0 4.0 0.00 0.00 0.00 1021.0
20260505014943 0 98 1.0 2.0 0.00 0.00 0.00 1020.9
20260505014440 0 106 2.0 2.0 0.00 0.00 0.00 1020.7
20260505013937 0 108 2.0 2.0 0.00 0.00 0.00 1020.8
20260505013434 0 143 2.0 2.0 0.00 0.00 0.00 1020.8
20260505012932 0 92 2.0 2.0 0.00 0.00 0.00 1020.7
20260505012429 0 94 2.0 2.0 0.00 0.00 0.00 1020.8
20260505011925 0 98 3.0 3.0 0.00 0.00 0.00 1020.5
20260505011422 0 115 3.0 3.0 0.00 0.00 0.00 1020.5
20260505010919 0 81 2.0 2.0 0.00 0.00 0.00 1020.3
20260505010414 0 87 2.0 2.0 0.00 0.00 0.00 1020.4
20260505005910 0 112 3.0 3.0 0.00 0.00 0.00 1020.4
20260505005408 0 93 5.0 6.0 0.00 0.00 0.00 1020.4
20260505004905 0 85 3.0 3.0 0.00 0.00 0.00 1020.4
20260505004401 0 94 4.0 4.0 0.00 0.00 0.00 1020.2
20260505003858 0 81 1.0 1.0 0.00 0.00 0.00 1020.3
20260505003356 0 159 2.0 2.0 0.00 0.00 0.00 1020.2
20260505002852 0 133 5.0 7.0 0.00 0.00 0.00 1020.2
20260505002348 0 159 4.0 6.0 0.00 0.00 0.00 1020.1
20260505001847 0 109 3.0 3.0 0.00 0.00 0.00 1020.0
20260505001344 0 93 4.0 6.0 0.00 0.00 0.00 1020.4
20260505000841 0 117 5.0 6.0 0.00 0.00 0.00 1020.5
20260505000338 0 98 1.0 2.0 0.00 0.00 0.00 1020.4
20260504235835 0 112 3.0 3.0 0.00 0.00 0.00 1020.5
20260504235332 0 140 3.0 3.0 0.00 0.00 0.00 1020.4
20260504234829 0 120 2.0 3.0 0.00 0.00 0.00 1020.6
20260504234327 0 105 3.0 3.0 0.00 0.00 0.00 1020.5
20260504233823 0 115 2.0 2.0 0.00 0.00 0.00 1020.5
20260504233318 0 162 3.0 3.0 0.00 0.00 0.00 1020.5
20260504232815 0 166 2.0 3.0 0.00 0.00 0.00 1020.2
20260504232313 0 164 7.0 8.0 0.00 0.00 0.00 1020.2
20260504231809 0 174 6.0 7.0 0.00 0.00 0.00 1020.1
20260504231306 0 128 7.0 8.0 0.00 0.00 0.00 1020.0
20260504230801 0 170 9.0 9.0 0.00 0.00 0.00 1020.1
20260504230300 0 136 8.0 10.0 0.00 0.00 0.00 1019.9
20260504225759 0 142 8.0 9.0 0.00 0.00 0.00 1019.8
20260504225254 0 181 7.0 8.0 0.00 0.00 0.00 1020.0
20260504224752 0 143 8.0 10.0 0.00 0.00 0.00 1019.9
20260504224249 0 152 5.0 6.0 0.00 0.00 0.00 1019.7
20260504223745 0 143 7.0 9.0 0.00 0.00 0.00 1019.8
20260504223241 0 130 9.0 10.0 0.00 0.00 0.00 1019.6
20260504222738 0 144 11.0 13.0 0.00 0.00 0.00 1019.5
20260504222235 0 141 9.0 11.0 0.00 0.00 0.00 1019.6
20260504221732 0 148 8.0 8.0 0.00 0.00 0.00 1019.4
20260504221230 0 192 8.0 9.0 0.00 0.00 0.00 1019.3
20260504220726 0 169 10.0 11.0 0.00 0.00 0.00 1019.5
20260504220224 0 115 12.0 14.0 0.00 0.00 0.00 1019.2
20260504215721 0 164 9.0 9.0 0.00 0.00 0.00 1019.3
20260504215217 0 154 7.0 8.0 0.00 0.00 0.00 1019.0
20260504214712 0 170 8.0 10.0 0.00 0.00 0.00 1019.2
20260504214209 0 116 5.0 6.0 0.00 0.00 0.00 1019.0
20260504213706 0 147 9.0 10.0 0.00 0.00 0.00 1019.0
20260504213202 0 170 7.0 8.0 0.00 0.00 0.00 1018.8
20260504212659 0 167 9.0 11.0 0.00 0.00 0.00 1019.0
20260504212156 0 146 8.0 11.0 0.00 0.00 0.00 1018.7
20260504211653 0 156 6.0 7.0 0.00 0.00 0.00 1018.7
20260504211149 0 175 10.0 10.0 0.00 0.00 0.00 1018.6
20260504210647 0 138 10.0 13.0 0.00 0.00 0.00 1018.8
20260504210143 0 173 9.0 9.0 0.00 0.00 0.00 1018.8
20260504205641 0 166 7.0 8.0 0.00 0.00 0.00 1018.4
20260504205138 0 150 10.0 13.0 0.00 0.00 0.00 1018.7
20260504204637 0 147 9.0 11.0 0.00 0.00 0.00 1018.7
20260504204135 0 152 14.0 21.0 0.00 0.00 0.00 1018.5
20260504203634 0 139 8.0 13.0 0.00 0.00 0.00 1018.5
20260504203131 0 164 12.0 14.0 0.00 0.00 0.00 1018.4
20260504202626 0 188 14.0 18.0 0.00 0.00 0.00 1018.4
20260504202123 0 181 11.0 14.0 0.00 0.00 0.00 1018.4
20260504201620 0 165 7.0 8.0 0.00 0.00 0.00 1018.4
20260504201118 0 151 14.0 17.0 0.00 0.00 0.00 1018.4
20260504200615 0 142 14.0 17.0 0.00 0.00 0.00 1018.2
20260504200111 0 139 9.0 10.0 0.00 0.00 0.00 1018.6
20260504195607 0 105 8.0 10.0 0.00 0.00 0.00 1018.5
20260504195103 0 155 12.0 15.0 0.00 0.00 0.00 1018.4
20260504194600 0 138 11.0 13.0 0.00 0.00 0.00 1018.4
20260504194055 0 133 11.0 13.0 0.00 0.00 0.00 1018.4
20260504193552 0 142 11.0 14.0 0.00 0.00 0.00 1018.5
20260504193051 0 163 9.0 11.0 0.00 0.00 0.00 1018.5
20260504192549 0 160 6.0 7.0 0.00 0.00 0.00 1018.4
20260504192047 0 181 10.0 14.0 0.00 0.00 0.00 1018.6
20260504191544 0 147 7.0 9.0 0.00 0.00 0.00 1018.5
20260504191040 0 158 12.0 15.0 0.00 0.00 0.00 1018.4
20260504190537 0 194 14.0 17.0 0.00 0.00 0.00 1018.4
20260504190033 0 186 12.0 13.0 0.00 0.00 0.00 1018.5
20260504185530 0 181 9.0 9.0 0.00 0.00 0.00 1018.7
20260504185027 0 204 10.0 11.0 0.00 0.00 0.00 1018.7
20260504184522 0 182 12.0 14.0 0.00 0.00 0.00 1018.7
20260504184017 0 127 10.0 13.0 0.00 0.00 0.00 1018.8
20260504183514 0 156 11.0 13.0 0.00 0.00 0.00 1018.8
20260504183013 0 146 11.0 13.0 0.00 0.00 0.00 1019.1
20260504182509 0 141 6.0 8.0 0.00 0.00 0.00 1018.8
20260504182006 0 96 9.0 10.0 0.00 0.00 0.00 1018.9
20260504181503 0 229 5.0 6.0 0.00 0.00 0.00 1018.8
20260504181002 0 134 7.0 8.0 0.00 0.00 0.00 1019.0
20260504180500 0 138 9.0 11.0 0.00 0.00 0.00 1018.9
20260504175958 0 80 6.0 11.0 0.00 0.00 0.00 1019.2
20260504175455 0 94 10.0 13.0 0.00 0.00 0.00 1019.1
20260504174953 0 120 7.0 8.0 0.00 0.00 0.00 1019.3
20260504174450 0 168 11.0 15.0 0.00 0.00 0.00 1019.0
20260504173947 0 193 9.0 13.0 0.00 0.00 0.00 1019.1
20260504173443 0 139 8.0 11.0 0.00 0.00 0.00 1019.2
20260504172941 0 142 6.0 8.0 0.00 0.00 0.00 1019.3
20260504172437 0 154 12.0 14.0 0.00 0.00 0.00 1019.5
20260504171934 0 129 10.0 13.0 0.00 0.00 0.00 1019.4
20260504171431 0 162 13.0 17.0 0.00 0.00 0.00 1019.6
20260504170928 0 167 11.0 16.0 0.00 0.00 0.00 1019.7
20260504170424 0 176 11.0 14.0 0.00 0.00 0.00 1019.8
20260504160343 0 148 12.0 15.0 0.00 0.00 0.00 1020.3
20260504150808 0 116 8.0 8.0 0.00 0.00 0.00 1020.5